Regional Weather Roundup
Issued by NWS Burlington, VT

Home | Current Version | Previous Version | Text Only | Print | Product List | Glossary On
Versions: 1 2 3 4 5 6 7 8 9 10 11 12 13 14 15 16 17 18 19 20 21 22 23 24 25 26 27 28 29 30 31 32 33 34 35 36 37 38 39 40 41 42 43 44 45 46 47 48 49 50
000
ASUS41 KBTV 111610
RWRBTV
VERMONT REGIONAL WEATHER ROUNDUP
NATIONAL WEATHER SERVICE BURLINGTON VT
1100 AM EST MON DEC 11 2017

NOTE: "FAIR" INDICATES FEW OR NO CLOUDS BELOW 12,000 FEET WITH NO
SIGNIFICANT WEATHER AND/OR OBSTRUCTIONS TO VISIBILITY.

* THESE REPORTS ARE NOT UNDER NWS QUALITY CONTROL AND/OR DO NOT
  REPORT WEATHER SUCH AS PRECIPITATION AND FOG.

VTZ001>019-111700-
_____VERMONT_____


CITY           SKY/WX    TMP DP  RH WIND       PRES   REMARKS
BURLINGTON     PTSUNNY   21  13  71 N9        30.01R WCI  11
MONTPELIER     FLURRIES  21  16  81 NW8       29.95R WCI  11
MORRISVILLE    CLOUDY    17  12  80 N12       29.97R WCI   4
ST. JOHNSBURY*   N/A     25  17  72 MISG      29.92R
LYNDONVILLE*   MIX PCPN  22  16  77 W5        29.91S WCI  16
MIDDLEBURY*    CLOUDY    24  18  78 NW6       29.98R WCI  17
RUTLAND*       CLOUDY    30  21  69 NW9       29.94R WCI  22
SPRINGFIELD    CLOUDY    32  20  61 SW8       29.94  WCI  25
HIGHGATE*      FAIR      17  10  74 NW3       30.04R
NEWPORT*       LGT SNOW  15  12  86 N5        29.95R WCI   8
BENNINGTON     CLOUDY    31  20  63 SW5       29.95  WCI  26

_____LAKE CHAMPLAIN_____


CITY           SKY/WX    TMP DP  RH WIND       PRES   REMARKS
BURTON ISLAND*   N/A     19  14  79 N9G16       N/A  WCI   9
COLCHESTER RF*   N/A     21  16  79 N16         N/A  WCI   7
DIAMOND ISL*     N/A     25  21  86 N17         N/A  WCI  11

$$

NYZ007-026>031-035-052-083-087-111700-
_____NORTHERN NEW YORK_____


CITY           SKY/WX    TMP DP  RH WIND       PRES   REMARKS
PLATTSBURGH    CLOUDY    20  12  71 N12       30.02R WCI   8
SARANAC LAKE   CLOUDY    15  10  80 SW6       29.89F WCI   6
MASSENA        MOSUNNY   17   3  54 NW10      30.09R WCI   5
OGDENSBURG*    FAIR      19   6  57 NW3       30.06S
WATERTOWN      MOSUNNY   19  10  68 CALM      30.06S
FT DRUM        CLOUDY    16   8  72 E3        30.01S
ALBANY         PTSUNNY   34  21  59 SW8       29.99S WCI  27
GLENS FALLS    CLOUDY    33  22  63 W7        29.96S WCI  27

$$
NHZ002-005-011-111700-
_____NEW HAMPSHIRE_____


CITY           SKY/WX    TMP DP  RH WIND       PRES   REMARKS
LEBANON        CLOUDY    33  21  61 W7        29.92R WCI  27
KEENE          CLOUDY    34  20  56 W9G17     29.95F WCI  27
MT WASHINGTON  SNOW       7   7 100 W35         N/A  VSB 0   WCI -18
PLYMOUTH       CLOUDY    34  21  58 SW3       29.91S
WHITEFIELD     LGT SNOW  25  19  78 W14G21    29.88R VSB 1   WCI  13

$$

_____REGIONAL QUEBEC LOCATIONS_____


CITY           SKY/WX    TMP DP  RH WIND       PRES   REMARKS
MONTREAL       PTSUNNY   14   0  52 CALM      30.06R
QUEBEC CITY    MOSUNNY   10   1  67 SW10      29.98S WCI  -3
SHERBROOKE     FLURRIES  12   7  79 W7        29.95R WCI   2

_____REGIONAL ONTARIO LOCATIONS_____


CITY           SKY/WX    TMP DP  RH WIND       PRES   REMARKS
OTTAWA         MOSUNNY   10   3  72 NW9       30.07F WCI  -2

______KEY______
VSB  - VISIBILITY IN MILES
WCI  - WIND CHILL INDEX
HX   - HEAT INDEX
$$
NNNN




USA.gov is the U.S. government's official web portal to all federal, state and local government web resources and services.